GW0360 Weather Reports


time (UTC)temp
C
wind
direction
speed
KPH
gust
KPH
rain 1hr
cm
rain 24hr
cm
rain mn
cm
humidity
%
barometer
mb
20260502152039 13 336 0.0 11.3 0.00 0.00 0.00 40 1022.7
20260502151559 12 17 0.0 11.3 0.00 0.00 0.00 45 1022.8
20260502151044 12 0 0.0 4.8 0.00 0.00 0.00 39 1022.9
20260502150544 12 355 0.0 4.8 0.00 0.00 0.00 41 1022.8
20260502130543 6 0 0.0 0.0 0.00 0.00 0.00 69 1022.5
20260502130105 5 0 0.0 0.0 0.00 0.00 0.00 74 1022.5
20260502123542 4 263 0.0 4.8 0.00 0.00 0.00 76 1022.3
20260502123058 3 0 0.0 4.8 0.00 0.00 0.00 77 1022.2
20260502122542 3 0 0.0 3.2 0.00 0.00 0.00 77 1022.1
20260502122043 3 0 0.0 3.2 0.00 0.00 0.00 77 1022.1
20260502121551 3 0 0.0 3.2 0.00 0.00 0.00 78 1022.1
20260502121043 3 0 0.0 1.6 0.00 0.00 0.00 79 1022.0
20260502120543 2 293 0.0 1.6 0.00 0.00 0.00 80 1021.9
20260502115545 2 0 0.0 1.6 0.00 0.00 0.00 81 1021.8
20260502115045 2 0 0.0 0.0 0.00 0.00 0.00 81 1021.8
20260502114555 2 0 0.0 0.0 0.00 0.00 0.00 81 1021.6
20260502114043 2 0 0.0 0.0 0.00 0.00 0.00 81 1021.6
20260502113547 2 0 0.0 0.0 0.00 0.00 0.00 81 1021.6
20260502113056 2 0 0.0 0.0 0.00 0.00 0.00 81 1021.5
20260502112542 2 0 0.0 0.0 0.00 0.00 0.00 80 1021.5
20260502112042 2 0 0.0 0.0 0.00 0.00 0.00 80 1021.5
20260502111549 2 0 0.0 0.0 0.00 0.00 0.00 80 1021.5
20260502111043 2 0 0.0 0.0 0.00 0.00 0.00 79 1021.5
20260502110541 2 0 0.0 0.0 0.00 0.00 0.00 79 1021.4
20260502110051 2 0 0.0 0.0 0.00 0.00 0.00 79 1021.4
20260502105545 2 0 0.0 0.0 0.00 0.00 0.00 79 1021.4
20260502105040 2 0 0.0 0.0 0.00 0.00 0.00 79 1021.5
20260502104552 2 0 0.0 0.0 0.00 0.00 0.00 78 1021.3
20260502104043 2 0 0.0 0.0 0.00 0.00 0.00 78 1021.3
20260502103544 2 0 0.0 0.0 0.00 0.00 0.00 77 1021.3
20260502103048 2 0 0.0 0.0 0.00 0.00 0.00 77 1021.4
20260502102544 3 0 0.0 0.0 0.00 0.00 0.00 77 1021.3
20260502102043 3 0 0.0 0.0 0.00 0.00 0.00 77 1021.2
20260502101551 3 0 0.0 0.0 0.00 0.00 0.00 76 1021.2
20260502101043 3 0 0.0 0.0 0.00 0.00 0.00 75 1021.1
20260502100543 3 0 0.0 0.0 0.00 0.00 0.00 75 1021.1
20260502091040 4 0 0.0 0.0 0.00 0.00 0.00 70 1021.1
20260502090543 4 0 0.0 0.0 0.00 0.00 0.00 69 1020.9
20260502071040 6 0 0.0 0.0 0.00 0.00 0.00 59 1020.7
20260502070543 6 0 0.0 0.0 0.00 0.00 0.00 60 1020.8
20260502070056 6 0 0.0 0.0 0.00 0.00 0.00 60 1020.7
20260502065540 6 0 0.0 0.0 0.00 0.00 0.00 60 1020.7
20260502065040 6 0 0.0 0.0 0.00 0.00 0.00 59 1020.8
20260502064551 6 0 0.0 0.0 0.00 0.00 0.00 58 1020.8
20260502064043 6 0 0.0 0.0 0.00 0.00 0.00 58 1021.0
20260502063543 7 0 0.0 0.0 0.00 0.00 0.00 58 1020.8
20260502063048 7 0 0.0 0.0 0.00 0.00 0.00 57 1020.8
20260502062539 6 0 0.0 0.0 0.00 0.00 0.00 58 1020.8
20260502062039 6 0 0.0 0.0 0.00 0.00 0.00 58 1020.7
20260502061550 6 0 0.0 0.0 0.00 0.00 0.00 59 1020.7
20260502061042 6 0 0.0 0.0 0.00 0.00 0.00 59 1020.7
20260502060543 7 0 0.0 0.0 0.00 0.00 0.00 58 1020.7
20260502060100 7 0 0.0 0.0 0.00 0.00 0.00 57 1020.6
20260502055544 7 0 0.0 0.0 0.00 0.00 0.00 56 1020.8
20260502055043 7 0 0.0 0.0 0.00 0.00 0.00 54 1020.7
20260502054553 8 0 0.0 0.0 0.00 0.00 0.00 53 1020.6
20260502054042 8 0 0.0 0.0 0.00 0.00 0.00 51 1020.6
20260502053540 8 0 0.0 0.0 0.00 0.00 0.00 50 1020.4
20260502053050 8 0 0.0 3.2 0.00 0.00 0.00 49 1020.6
20260502052543 9 0 0.0 3.2 0.00 0.00 0.00 48 1020.6
20260502052043 9 0 0.0 8.0 0.00 0.00 0.00 48 1020.6
20260502051551 10 0 0.0 8.0 0.00 0.00 0.00 47 1020.6
20260502051043 10 0 0.0 4.8 0.00 0.00 0.00 46 1020.5
20260502050540 10 0 0.0 4.8 0.00 0.00 0.00 46 1020.5
20260502050051 10 0 0.0 4.8 0.00 0.00 0.00 47 1020.5
20260502045542 9 0 0.0 3.2 0.00 0.00 0.00 49 1020.4
20260502045044 9 0 0.0 0.0 0.00 0.00 0.00 48 1020.4
20260502044553 9 0 0.0 3.2 0.00 0.00 0.00 48 1020.3
20260502044039 10 0 0.0 3.2 0.00 0.00 0.00 48 1020.3
20260502043542 9 0 0.0 3.2 0.00 0.00 0.00 48 1020.3
20260502043055 10 0 0.0 1.6 0.00 0.00 0.00 49 1020.3
20260502042544 10 0 0.0 0.0 0.00 0.00 0.00 48 1020.3
20260502042041 10 0 0.0 3.2 0.00 0.00 0.00 48 1020.2
20260502041553 10 0 0.0 3.2 0.00 0.00 0.00 47 1020.2
20260502041040 10 0 0.0 4.8 0.00 0.00 0.00 48 1020.2
20260502040540 10 0 0.0 4.8 0.00 0.00 0.00 47 1020.3
20260502040054 10 0 0.0 4.8 0.00 0.00 0.00 47 1020.2
20260502035542 10 0 0.0 3.2 0.00 0.00 0.00 47 1020.2
20260502035040 11 0 0.0 3.2 0.00 0.00 0.00 47 1020.2
20260502034548 11 0 0.0 6.4 0.00 0.00 0.00 47 1020.3
20260502034043 11 0 0.0 6.4 0.00 0.00 0.00 48 1020.1
20260502033542 11 0 0.0 6.4 0.00 0.00 0.00 47 1020.1
20260502033052 11 0 0.0 3.2 0.00 0.00 0.00 47 1020.1
20260502032545 11 0 0.0 3.2 0.00 0.00 0.00 48 1020.1
20260502032043 11 0 0.0 1.6 0.00 0.00 0.00 48 1019.9
20260502031550 11 0 0.0 6.4 0.00 0.00 0.00 48 1019.9
20260502031043 11 0 0.0 6.4 0.00 0.00 0.00 47 1019.7
20260502030541 12 0 0.0 3.2 0.00 0.00 0.00 48 1019.7
20260502030054 11 0 0.0 3.2 0.00 0.00 0.00 49 1019.7
20260502025540 11 63 0.0 3.2 0.00 0.00 0.00 51 1019.6
20260502025040 11 0 0.0 3.2 0.00 0.00 0.00 53 1019.5
20260502024549 11 0 0.0 3.2 0.00 0.00 0.00 54 1019.4
20260502024040 12 0 0.0 0.0 0.00 0.00 0.00 53 1019.3
20260502023543 12 0 0.0 1.6 0.00 0.00 0.00 53 1019.2
20260502023048 12 0 0.0 1.6 0.00 0.00 0.00 52 1019.1
20260502022540 12 0 0.0 1.6 0.00 0.00 0.00 52 1018.9
20260502022041 12 0 0.0 1.6 0.00 0.00 0.00 52 1018.8
20260502021550 12 0 0.0 1.6 0.00 0.00 0.00 51 1018.7
20260502021047 12 0 0.0 0.0 0.00 0.00 0.00 51 1018.6
20260502020540 12 0 0.0 0.0 0.00 0.00 0.00 51 1018.5
20260502020048 12 0 0.0 0.0 0.00 0.00 0.00 51 1018.4
20260502015543 12 0 0.0 0.0 0.00 0.00 0.00 51 1018.3
20260502015043 12 0 0.0 0.0 0.00 0.00 0.00 50 1018.2
20260502014556 12 0 0.0 0.0 0.00 0.00 0.00 49 1018.2
20260502014040 13 0 0.0 1.6 0.00 0.00 0.00 48 1018.1
20260502013540 13 0 0.0 1.6 0.00 0.00 0.00 46 1018.1
20260502013054 13 0 0.0 0.0 0.00 0.00 0.00 46 1018.0
20260502012540 13 0 0.0 1.6 0.00 0.00 0.00 44 1018.0
20260502012040 14 0 0.0 1.6 0.00 0.00 0.00 44 1018.1
20260502011549 14 0 0.0 1.6 0.00 0.00 0.00 43 1018.0
20260502011039 14 0 0.0 3.2 0.00 0.00 0.00 42 1017.9
20260502010541 15 0 0.0 3.2 0.00 0.00 0.00 41 1017.9
20260502010058 15 355 0.0 4.8 0.00 0.00 0.00 41 1017.9
20260502005541 15 0 0.0 4.8 0.00 0.00 0.00 41 1017.8
20260502005043 15 281 0.0 4.8 0.00 0.00 0.00 40 1017.8
20260502004551 15 0 0.0 3.2 0.00 0.00 0.00 40 1017.7
20260502004046 16 0 0.0 6.4 0.00 0.00 0.00 38 1017.6
20260502003543 16 0 0.0 6.4 0.00 0.00 0.00 38 1017.5
20260502003049 16 338 0.0 8.0 0.00 0.00 0.00 37 1017.5
20260502002544 16 5 1.6 12.9 0.00 0.00 0.00 37 1017.5
20260502002044 16 350 1.6 12.9 0.00 0.00 0.00 36 1017.5
20260502001549 16 5 1.6 16.1 0.00 0.00 0.00 35 1017.3
20260502001045 16 349 3.2 16.1 0.00 0.00 0.00 34 1017.3
20260502000544 16 348 0.0 11.3 0.00 0.00 0.00 33 1017.3
20260502000105 17 349 1.6 11.3 0.00 0.00 0.00 35 1017.2
20260501235544 17 294 1.6 11.3 0.00 0.00 0.00 34 1017.2
20260501235044 17 263 1.6 14.5 0.00 0.00 0.00 35 1017.2
20260501234551 17 306 3.2 17.7 0.00 0.00 0.00 34 1017.1
20260501234044 17 5 3.2 17.7 0.00 0.00 0.00 33 1017.1
20260501233549 17 306 3.2 17.7 0.00 0.00 0.00 34 1017.2
20260501233053 17 300 1.6 8.0 0.00 0.00 0.00 34 1017.1
20260501232546 17 348 0.0 20.9 0.00 0.00 0.00 34 1017.1
20260501232048 17 352 1.6 20.9 0.00 0.00 0.00 34 1017.1
20260501231552 17 0 3.2 17.7 0.00 0.00 0.00 34 1017.1
20260501231044 17 317 1.6 11.3 0.00 0.00 0.00 34 1017.1
20260501230545 17 355 1.6 6.4 0.00 0.00 0.00 33 1017.1
20260501230052 17 326 0.0 12.9 0.00 0.00 0.00 33 1017.0
20260501225547 17 0 1.6 12.9 0.00 0.00 0.00 32 1017.0
20260501225045 18 0 3.2 12.9 0.00 0.00 0.00 31 1016.9
20260501224553 18 327 0.0 14.5 0.00 0.00 0.00 34 1017.1
20260501224045 18 234 3.2 14.5 0.00 0.00 0.00 33 1017.1
20260501223545 17 293 1.6 14.5 0.00 0.00 0.00 33 1017.1
20260501223050 17 352 3.2 14.5 0.00 0.00 0.00 33 1017.1
20260501222544 18 0 1.6 12.9 0.00 0.00 0.00 34 1017.1
20260501222044 18 348 1.6 12.9 0.00 0.00 0.00 35 1017.2
20260501221551 17 17 0.0 9.7 0.00 0.00 0.00 39 1017.2
20260501221044 17 5 0.0 12.9 0.00 0.00 0.00 36 1017.2
20260501220546 18 329 0.0 17.7 0.00 0.00 0.00 34 1017.2
20260501220100 18 336 1.6 17.7 0.00 0.00 0.00 35 1017.2
20260501215545 18 0 1.6 17.7 0.00 0.00 0.00 35 1017.1
20260501215044 19 0 1.6 17.7 0.00 0.00 0.00 35 1017.1
20260501214554 18 44 0.0 17.7 0.00 0.00 0.00 34 1017.1
20260501214045 19 24 1.6 16.1 0.00 0.00 0.00 33 1017.2
20260501213544 19 257 3.2 16.1 0.00 0.00 0.00 34 1017.3
20260501213057 19 321 4.8 14.5 0.00 0.00 0.00 34 1017.4
20260501212544 19 321 1.6 12.9 0.00 0.00 0.00 37 1017.5
20260501212044 18 340 1.6 12.9 0.00 0.00 0.00 36 1017.5
20260501211551 18 49 1.6 16.1 0.00 0.00 0.00 37 1017.6
20260501211044 17 327 1.6 16.1 0.00 0.00 0.00 37 1017.8
20260501210544 17 269 6.4 16.1 0.00 0.00 0.00 37 1017.9
20260501210054 18 282 1.6 17.7 0.00 0.00 0.00 38 1018.0
20260501205544 18 352 4.8 17.7 0.00 0.00 0.00 36 1018.0
20260501205044 18 9 6.4 17.7 0.00 0.00 0.00 35 1018.1
20260501204553 18 0 1.6 17.7 0.00 0.00 0.00 39 1018.1
20260501204046 18 355 1.6 17.7 0.00 0.00 0.00 36 1018.1
20260501203543 19 318 1.6 11.3 0.00 0.00 0.00 33 1018.2
20260501203057 19 0 1.6 19.3 0.00 0.00 0.00 36 1018.2
20260501202547 20 327 3.2 19.3 0.00 0.00 0.00 36 1018.2
20260501202044 20 312 3.2 16.1 0.00 0.00 0.00 37 1018.3
20260501201609 20 324 3.2 14.5 0.00 0.00 0.00 35 1018.3
20260501201045 19 148 0.0 14.5 0.00 0.00 0.00 40 1018.3
20260501200543 18 24 1.6 17.7 0.00 0.00 0.00 37 1018.6
20260501200054 18 310 1.6 17.7 0.00 0.00 0.00 37 1018.6
20260501195544 18 331 3.2 19.3 0.00 0.00 0.00 35 1018.6
20260501195043 18 316 1.6 19.3 0.00 0.00 0.00 36 1018.7
20260501194551 17 302 3.2 19.3 0.00 0.00 0.00 37 1018.7
20260501194044 17 0 3.2 17.7 0.00 0.00 0.00 38 1018.7
20260501193542 18 332 1.6 14.5 0.00 0.00 0.00 37 1018.7
20260501193050 18 280 1.6 12.9 0.00 0.00 0.00 35 1018.6
20260501192544 18 340 1.6 19.3 0.00 0.00 0.00 35 1018.7
20260501192043 18 332 3.2 19.3 0.00 0.00 0.00 33 1018.7
20260501191559 18 311 4.8 19.3 0.00 0.00 0.00 35 1018.6
20260501191047 18 284 1.6 16.1 0.00 0.00 0.00 37 1018.7
20260501190544 18 0 1.6 16.1 0.00 0.00 0.00 38 1018.7
20260501190053 19 311 4.8 16.1 0.00 0.00 0.00 34 1018.7
20260501185543 19 198 3.2 20.9 0.00 0.00 0.00 39 1018.7
20260501185045 17 334 4.8 20.9 0.00 0.00 0.00 37 1018.7
20260501184603 17 62 1.6 14.5 0.00 0.00 0.00 35 1018.7
20260501184046 18 277 0.0 16.1 0.00 0.00 0.00 35 1018.8
20260501183545 18 261 1.6 16.1 0.00 0.00 0.00 40 1018.8
20260501183054 19 344 3.2 17.7 0.00 0.00 0.00 37 1018.9
20260501182545 19 0 1.6 17.7 0.00 0.00 0.00 37 1019.0
20260501182045 19 283 4.8 25.7 0.00 0.00 0.00 35 1019.1
20260501181600 19 316 6.4 25.7 0.00 0.00 0.00 33 1019.2
20260501181040 19 311 1.6 9.7 0.00 0.00 0.00 40 1019.1
20260501180540 18 0 1.6 12.9 0.00 0.00 0.00 32 1019.1
20260501180055 19 337 1.6 14.5 0.00 0.00 0.00 34 1019.2
20260501175540 19 298 3.2 17.7 0.00 0.00 0.00 32 1019.3
20260501175039 18 16 3.2 17.7 0.00 0.00 0.00 32 1019.3
20260501174550 18 250 1.6 16.1 0.00 0.00 0.00 35 1019.4
20260501174040 18 21 4.8 12.9 0.00 0.00 0.00 34 1019.4
20260501173540 18 0 3.2 16.1 0.00 0.00 0.00 37 1019.5
20260501173050 18 324 0.0 16.1 0.00 0.00 0.00 34 1019.4
20260501172541 18 340 3.2 12.9 0.00 0.00 0.00 33 1019.6
20260501172040 18 0 1.6 9.7 0.00 0.00 0.00 36 1019.5
20260501171555 18 310 1.6 8.0 0.00 0.00 0.00 35 1019.6
20260501171040 17 329 1.6 6.4 0.00 0.00 0.00 36 1019.6
20260501170544 17 227 0.0 8.0 0.00 0.00 0.00 33 1019.6
20260501170055 17 355 1.6 12.9 0.00 0.00 0.00 32 1019.6
20260501165540 17 14 3.2 12.9 0.00 0.00 0.00 31 1019.7
20260501165041 17 12 1.6 9.7 0.00 0.00 0.00 38 1019.7
20260501164550 18 311 3.2 9.7 0.00 0.00 0.00 36 1019.7
20260501164044 17 337 1.6 12.9 0.00 0.00 0.00 36 1019.7
20260501163541 17 306 1.6 12.9 0.00 0.00 0.00 38 1019.7
20260501163053 17 184 4.8 12.9 0.00 0.00 0.00 36 1019.7
20260501162540 17 142 1.6 8.0 0.00 0.00 0.00 36 1019.7
20260501162040 16 212 3.2 8.0 0.00 0.00 0.00 39 1019.8
20260501161554 16 306 3.2 12.9 0.00 0.00 0.00 37 1019.7
20260501161044 16 288 3.2 16.1 0.00 0.00 0.00 40 1019.8
20260501160540 16 0 3.2 16.1 0.00 0.00 0.00 39 1019.7
20260501160053 16 0 4.8 14.5 0.00 0.00 0.00 39 1019.7
20260501155542 16 198 3.2 14.5 0.00 0.00 0.00 40 1019.8
20260501155040 16 186 3.2 14.5 0.00 0.00 0.00 40 1019.8
20260501154556 16 257 4.8 14.5 0.00 0.00 0.00 40 1019.8
20260501154040 16 254 4.8 14.5 0.00 0.00 0.00 40 1019.8
20260501153540 15 299 3.2 11.3 0.00 0.00 0.00 41 1019.7
20260501153054 15 228 3.2 9.7 0.00 0.00 0.00 40 1019.8
20260501152539 15 309 3.2 9.7 0.00 0.00 0.00 39 1019.8